Theta_e
341 340 341 341 341 342 342 339 335 333 333 336 338 338 339 339 339 339 338 337 335 334 334 333 332 332 330 326 322 321 321 323 327 329 329 330 330 330 328 326 326 325 324 325 326 327 328 328 330 332 333 335 335 334 333 331 329 328 328 328 328 328
341 341 341 341 342 342 341 338 333 333 337 339 339 340 339 339 339 338 338 337 335 334 333 332 331 332 330 325 323 322 321 322 326 327 326 326 327 326 324 324 325 325 326 327 327 328 328 328 329 331 333 336 335 334 333 330 330 328 328 328 328 329
342 342 341 342 342 342 340 336 332 335 339 340 340 340 339 339 338 337 337 337 336 334 332 333 332 332 330 325 325 324 322 323 324 324 324 325 326 325 324 323 324 325 327 328 329 329 328 328 329 330 333 335 335 334 333 331 330 328 328 328 328 329
342 342 342 342 342 342 339 334 334 337 339 340 340 339 338 337 336 335 335 336 335 333 332 333 333 334 330 326 326 325 323 323 323 324 325 325 326 326 324 323 324 326 328 329 329 329 328 328 329 329 332 335 334 334 333 330 329 328 328 328 328 329
342 341 341 342 342 341 337 334 336 339 339 339 338 337 335 335 334 333 334 335 334 332 331 332 334 335 331 327 327 327 325 324 324 325 325 326 327 327 325 324 324 325 327 328 328 328 329 329 330 329 331 334 335 333 332 330 329 329 329 329 329 330
341 340 341 341 341 340 336 335 338 339 338 337 336 334 334 333 332 332 332 333 332 331 330 332 335 334 330 327 327 328 326 325 325 328 329 330 331 329 328 327 327 327 328 328 329 330 330 330 330 330 331 333 335 333 331 330 329 329 329 329 329 329
340 339 341 342 340 338 336 336 339 338 337 336 334 333 333 332 330 330 330 331 330 330 330 330 333 333 330 328 328 328 327 327 328 330 331 331 331 330 329 328 328 329 329 330 331 330 329 329 329 330 330 332 334 333 330 330 329 329 329 329 329 327
339 339 341 341 338 337 337 337 338 337 336 335 333 332 332 331 329 329 329 330 330 330 330 330 331 331 329 328 328 329 329 330 331 331 331 331 330 330 330 329 329 329 330 331 330 329 329 329 329 329 330 331 334 333 330 330 329 329 329 329 329 327
339 340 340 338 336 336 337 337 336 336 335 333 332 331 331 329 328 328 329 331 331 331 331 331 332 332 330 329 330 331 331 331 332 332 332 331 330 330 331 330 330 330 330 330 330 328 328 328 330 330 329 331 333 333 330 330 329 329 330 330 329 328
339 339 338 336 335 336 337 335 335 335 334 332 331 330 329 327 327 328 330 333 332 332 333 332 333 333 332 331 331 332 332 331 331 332 331 331 330 330 331 330 330 330 330 330 328 328 328 328 330 330 330 331 333 333 330 330 329 329 330 331 330 328
339 338 336 336 336 335 335 334 334 334 334 332 330 328 328 328 328 328 330 333 333 332 333 333 333 334 333 332 332 332 332 332 331 331 331 330 330 331 331 331 331 330 329 328 328 328 328 328 330 330 330 332 333 332 331 329 329 330 330 331 329 328
337 336 335 335 334 334 333 333 333 333 333 332 329 327 328 329 329 329 331 333 333 333 333 334 334 333 333 333 333 333 332 332 331 331 331 331 331 331 331 331 331 330 329 327 327 328 327 328 328 330 330 332 332 332 331 329 329 329 329 329 329 328
335 334 333 333 332 332 332 332 333 333 333 331 329 329 329 329 329 329 331 333 334 333 333 334 334 333 333 333 333 333 332 332 331 331 332 332 332 332 331 331 331 330 328 327 327 328 327 327 327 328 330 331 331 331 330 328 327 327 328 328 328 329
334 334 332 332 332 331 331 332 332 333 333 331 332 333 331 330 330 330 331 333 334 334 334 334 333 333 333 333 333 333 333 332 332 332 333 332 331 331 331 331 330 329 328 327 327 327 327 327 327 328 329 330 331 330 328 326 325 326 327 329 329 329
335 334 333 332 332 331 332 332 332 334 333 331 333 334 332 331 331 331 332 333 334 333 334 333 333 333 332 333 333 333 333 333 332 333 333 332 331 331 331 330 330 329 328 327 327 328 328 328 328 328 329 330 331 330 327 324 325 327 328 330 330 330
336 336 334 333 332 331 333 332 332 334 332 331 333 334 333 331 331 332 333 333 333 333 333 333 333 332 332 333 334 333 333 333 333 332 332 332 332 331 330 330 330 329 328 327 327 328 328 328 329 330 331 331 332 331 327 325 326 328 329 330 330 330
337 337 335 334 333 333 333 332 333 334 332 332 334 334 332 332 332 332 333 333 333 333 333 333 332 333 333 333 333 333 333 333 333 332 332 332 332 331 330 330 330 329 328 327 327 327 328 328 328 330 331 332 332 332 329 326 325 326 329 330 330 331
337 337 336 335 334 334 334 333 334 334 333 334 335 334 332 332 332 332 333 333 333 333 333 333 333 334 334 333 333 333 333 333 333 333 332 332 332 332 330 329 329 329 328 328 327 327 328 328 328 328 330 330 331 331 330 327 325 325 327 328 329 329
337 337 336 336 336 335 335 335 335 335 335 336 335 333 333 332 332 332 334 335 334 334 333 333 333 333 333 333 333 333 333 333 333 333 332 332 332 332 331 330 329 329 328 328 327 327 328 328 328 328 329 330 330 331 331 329 327 326 327 327 327 327
338 337 336 336 337 336 336 337 337 336 336 336 334 333 333 334 333 334 335 335 334 334 334 334 333 333 333 333 333 333 333 333 333 333 332 332 332 332 331 330 329 329 329 328 328 328 328 328 328 328 329 329 330 330 331 331 330 329 330 329 328 327
338 337 336 337 337 336 336 337 337 337 336 335 334 333 334 335 335 335 335 334 334 334 334 334 334 334 334 334 333 333 333 333 333 333 332 332 332 332 331 330 329 329 329 328 329 329 328 328 328 328 328 328 329 330 330 331 330 331 331 330 329 330
338 337 336 336 336 336 336 336 336 336 335 334 334 334 335 336 336 335 334 334 334 334 334 334 334 334 334 334 334 333 333 332 332 332 331 331 332 332 332 331 330 329 329 329 329 329 329 328 328 328 327 327 328 329 329 329 330 330 330 329 329 330
338 337 336 336 335 335 335 335 336 335 334 335 335 335 336 336 336 334 334 334 333 334 334 334 334 334 334 333 333 333 332 332 332 332 331 331 332 332 333 332 331 329 329 329 329 329 329 328 329 328 328 329 328 328 329 328 328 329 328 328 328 329
338 337 336 336 335 335 335 335 336 336 335 336 336 336 336 335 334 334 334 334 333 334 333 333 334 333 333 332 332 332 331 331 331 332 331 331 332 332 333 332 331 330 329 329 328 329 329 328 329 329 329 328 325 327 331 328 326 327 327 327 327 328
338 337 336 336 335 335 335 336 336 336 336 336 335 335 335 335 334 333 333 333 333 333 333 333 333 332 332 331 330 330 330 330 331 331 331 330 331 332 332 332 332 331 329 329 328 328 329 328 329 329 328 327 327 329 331 328 326 327 327 327 327 327
337 337 337 336 335 335 335 336 336 336 336 335 334 334 334 334 333 333 333 333 333 332 332 332 332 332 331 330 330 330 330 330 331 330 330 331 331 331 332 332 332 331 330 329 328 328 328 328 329 329 327 327 329 330 328 327 328 327 326 326 327 327
337 337 337 336 335 335 335 337 336 336 335 334 333 333 333 333 332 332 332 332 331 331 330 330 331 331 331 330 330 330 330 330 331 330 330 331 331 330 331 332 332 331 330 329 329 328 328 328 329 329 328 327 328 328 327 327 327 327 327 327 327 327
337 337 337 336 335 335 336 337 336 335 335 334 333 333 333 333 332 331 331 330 330 329 327 327 328 328 328 329 329 329 330 330 331 331 330 331 330 330 331 331 331 331 331 329 329 328 328 329 329 329 328 328 329 327 326 326 326 326 327 328 327 327
336 335 335 335 335 336 337 336 336 335 333 332 332 332 332 331 331 330 329 330 330 328 326 325 326 326 326 326 327 327 328 329 330 330 330 330 330 330 331 330 330 330 330 329 329 329 329 328 329 329 328 329 328 326 326 326 325 325 325 327 328 326
335 334 334 334 334 335 336 336 335 334 332 331 331 331 330 330 329 330 329 330 330 329 327 326 326 326 326 326 326 326 326 327 328 329 329 329 330 330 330 330 330 329 329 329 329 329 329 329 328 328 328 329 327 326 325 324 324 325 324 325 326 325
335 334 334 334 334 335 336 336 335 334 332 330 330 329 329 330 329 329 329 329 330 329 327 326 326 327 327 326 326 326 326 326 327 328 328 328 329 330 330 331 330 329 329 329 329 329 329 329 329 328 328 329 328 326 325 325 324 325 324 323 325 324
334 334 334 334 335 336 336 335 335 334 332 330 329 329 330 330 329 328 328 327 328 327 325 325 326 327 326 326 326 326 325 326 327 327 327 327 328 329 330 330 330 330 330 329 329 329 329 329 329 329 329 329 328 327 326 326 325 325 325 324 324 323
334 334 334 333 335 335 334 334 333 332 331 329 329 330 330 330 328 327 327 326 326 325 325 325 326 327 326 325 325 325 325 326 326 326 326 327 328 329 329 329 329 330 330 330 329 329 328 327 328 329 329 329 328 327 326 326 325 325 325 324 324 320
334 334 333 332 332 331 331 332 331 331 330 329 328 328 329 329 328 327 326 326 325 325 325 325 326 326 325 325 325 325 326 326 325 325 325 327 328 328 328 328 329 329 329 329 329 328 327 327 327 328 329 329 328 327 326 325 325 324 324 324 323 319
334 333 332 331 329 328 328 328 329 329 328 327 326 326 328 328 327 326 326 326 325 325 325 325 325 325 325 325 325 324 325 325 325 325 324 325 326 327 328 328 328 328 328 328 328 328 327 326 327 328 329 329 328 327 326 325 324 324 323 323 322 319
333 332 331 329 327 327 327 327 327 327 326 326 325 325 326 326 324 324 325 326 326 325 325 325 325 325 325 325 324 324 324 324 324 325 324 323 324 326 327 328 328 328 327 327 327 327 326 326 327 327 328 329 328 327 326 325 323 323 323 322 321 319
329 330 331 329 328 328 327 326 327 327 326 325 324 325 325 324 324 325 325 325 325 325 324 324 324 324 324 324 324 323 323 323 323 326 325 322 323 325 327 328 328 327 327 327 327 326 325 325 326 327 328 328 327 326 326 325 323 322 322 320 318 317
Wind_Speed
25 25 24 22 20 18 17 17 17 17 16 15 14 15 15 16 16 16 16 15 15 15 14 13 13 12 12 11 11 11 11 11 10 10 10 9 9 9 10 9 8 8 8 8 9 10 10 9 9 10 10 10 13 14 13 11 10 11 11 11 11 11
26 25 25 22 21 19 18 18 18 17 16 15 14 15 16 16 16 16 15 15 15 14 14 13 13 12 12 11 11 12 12 12 10 10 11 9 8 9 11 11 9 8 8 8 9 10 10 8 8 9 10 10 13 14 13 11 10 11 11 11 11 11
26 25 24 22 21 20 19 19 18 17 17 16 16 16 16 16 15 15 14 14 14 13 13 12 11 11 11 11 12 12 12 12 12 11 11 10 8 8 10 11 10 9 9 9 10 10 8 8 8 9 11 12 14 15 14 12 10 10 11 11 11 11
26 25 24 23 22 20 20 19 18 18 18 18 17 16 16 15 14 14 14 14 14 12 11 11 10 10 10 11 12 12 12 12 12 11 10 9 7 7 9 10 9 9 10 10 10 9 7 7 8 9 11 12 14 16 14 12 11 10 11 12 12 12
25 25 25 24 22 20 20 19 18 19 18 18 18 17 15 13 13 13 14 14 13 12 11 12 12 10 10 10 11 11 11 11 10 10 9 9 8 7 8 9 9 9 9 9 9 8 6 6 8 9 10 11 13 15 14 13 12 11 12 12 13 13
25 24 24 23 21 20 21 20 19 19 18 18 17 16 14 13 13 13 13 13 13 12 12 12 12 11 10 9 9 9 9 9 9 9 8 8 8 8 8 8 8 8 8 8 7 5 4 5 7 9 10 10 12 15 15 13 12 12 13 13 13 13
25 23 24 22 21 21 21 20 20 19 18 18 17 16 15 14 13 12 12 12 12 12 11 12 12 11 9 9 8 8 8 8 8 8 7 7 7 7 6 6 6 6 7 5 4 3 3 4 6 9 11 10 12 15 15 13 12 13 13 13 13 12
24 23 23 22 22 22 21 20 20 19 18 18 17 16 15 13 12 11 11 11 11 11 11 11 12 11 9 8 8 8 8 7 7 6 6 6 7 7 5 4 4 5 5 4 2 3 3 4 6 9 10 10 12 15 16 14 13 14 14 14 13 12
24 23 23 23 23 23 21 20 20 19 18 18 16 15 14 13 12 11 11 11 11 11 11 11 11 11 9 9 9 8 7 6 5 4 4 5 6 6 5 4 5 4 4 3 3 3 4 4 7 8 9 10 12 14 16 15 14 14 14 14 13 12
24 23 23 24 24 23 21 20 20 19 18 17 15 14 13 13 12 12 12 11 11 10 11 11 11 11 10 10 9 7 6 5 4 3 3 4 4 4 4 6 6 4 5 5 4 5 5 6 8 8 8 9 11 13 15 15 15 15 15 14 12 12
25 23 23 24 23 22 21 20 19 18 17 15 14 13 13 13 13 12 12 11 11 10 10 10 11 10 10 9 8 7 6 5 4 3 2 4 5 4 5 7 7 5 6 6 6 7 6 7 9 9 9 10 11 13 15 15 16 16 15 14 12 13
24 24 23 23 22 21 20 19 18 17 16 15 14 13 13 14 13 13 12 10 10 10 10 10 10 10 10 9 8 7 6 6 5 4 4 5 5 5 5 6 6 6 7 8 8 8 8 9 10 11 11 11 12 14 16 16 16 16 15 14 13 15
24 24 23 23 22 21 20 19 18 18 17 15 14 14 14 14 13 13 12 10 10 10 10 10 11 10 10 9 8 7 7 7 6 5 6 6 5 5 4 5 6 7 8 9 10 10 10 10 11 11 11 12 13 14 16 16 15 15 14 14 14 15
24 24 23 23 22 22 21 20 20 19 18 16 14 14 14 14 13 13 13 11 11 11 10 10 10 10 10 9 8 8 8 8 8 6 6 5 5 5 5 5 6 8 9 9 10 12 11 11 11 11 12 13 14 15 15 15 14 14 14 13 13 13
24 24 23 23 23 23 22 21 21 19 19 18 15 13 14 14 13 12 12 11 10 10 10 10 10 10 9 8 8 8 8 8 8 7 6 5 5 6 6 5 6 8 10 10 11 13 13 12 12 13 14 14 14 14 14 14 14 14 13 13 13 12
25 24 24 24 24 23 23 22 21 20 19 19 16 13 13 13 12 11 10 10 9 8 9 10 11 10 9 8 8 8 9 9 8 7 6 5 6 7 7 7 7 8 11 12 13 14 13 13 14 14 15 15 14 14 14 15 14 14 13 12 12 11
25 25 24 24 24 23 23 23 22 20 19 18 16 13 12 12 11 10 9 8 8 8 9 10 11 11 10 9 9 8 9 9 9 8 7 6 6 7 8 9 9 9 11 12 14 15 14 14 14 15 15 15 14 14 15 15 13 13 12 11 11 11
25 25 24 24 23 22 23 22 22 20 18 16 14 12 12 12 11 10 8 7 7 8 8 10 12 12 11 9 8 8 8 8 8 7 7 8 8 9 9 10 11 11 11 13 14 15 15 16 16 15 14 13 13 13 13 13 12 12 11 11 10 10
26 25 24 23 22 22 22 22 21 20 18 15 13 13 12 11 11 10 8 7 8 9 9 11 13 12 10 9 8 9 8 7 7 7 8 8 9 10 11 12 12 13 13 13 14 16 17 17 16 15 14 12 11 11 12 12 11 11 11 11 11 11
27 26 25 24 23 23 22 21 20 19 18 16 14 13 12 11 10 9 8 8 9 9 9 11 11 9 8 9 9 8 7 6 6 7 7 8 10 11 12 13 13 14 15 15 15 16 18 19 18 16 14 12 11 9 10 11 11 11 10 10 10 11
28 27 26 26 25 24 23 22 20 19 18 16 15 13 12 11 9 8 8 9 10 9 10 10 9 8 8 8 8 8 7 7 7 7 7 8 10 12 12 13 14 14 15 17 18 17 18 20 18 15 12 12 12 10 8 8 9 8 8 10 11 10
28 27 25 25 25 25 24 22 20 19 18 17 16 14 12 11 9 8 8 9 9 9 10 9 9 8 8 7 8 9 8 8 8 8 7 9 11 12 13 13 15 15 15 18 18 18 19 15 11 11 10 10 9 8 7 6 6 5 5 8 10 10
27 26 24 24 25 25 24 21 18 17 17 17 16 14 11 10 9 8 8 8 8 8 8 8 8 8 7 7 8 8 9 8 9 9 9 12 13 12 13 13 14 15 16 17 16 19 17 9 9 13 11 6 3 3 4 5 7 5 2 4 7 8
25 25 24 25 25 24 22 19 17 16 16 15 14 13 11 10 10 8 8 7 7 6 6 7 7 7 7 7 7 8 9 9 10 9 9 11 13 14 13 13 14 14 16 18 16 17 12 7 13 13 7 3 2 2 1 2 7 8 4 3 3 3
25 24 24 25 23 22 21 19 16 15 15 14 12 13 13 13 11 10 9 8 7 6 5 5 5 6 6 6 7 8 8 9 10 9 9 10 12 13 13 13 13 12 15 17 16 18 12 8 14 11 5 5 4 1 1 3 6 6 5 5 4 2
26 25 24 25 22 21 20 19 17 16 16 15 13 14 15 15 14 12 10 9 8 6 5 4 5 5 6 7 7 7 8 9 9 9 9 9 10 11 12 12 11 10 13 14 15 18 14 11 15 10 5 5 1 1 5 7 4 2 5 6 5 4
27 26 25 25 23 21 21 20 18 18 18 17 16 15 15 15 14 12 10 9 8 7 6 6 6 6 7 7 7 6 7 7 8 8 9 10 9 10 11 11 10 9 11 14 15 17 14 13 17 12 7 7 3 2 10 10 5 2 3 4 5 7
27 26 26 26 24 23 22 21 20 19 19 18 17 15 15 15 13 12 11 11 10 9 9 8 8 9 9 8 7 6 6 7 8 9 8 9 9 8 9 10 11 9 11 15 15 16 15 15 18 14 9 7 4 4 12 11 10 9 5 2 4 7
27 25 25 25 25 24 21 21 21 20 19 18 17 16 15 15 13 13 13 11 10 11 10 10 9 9 8 8 7 5 6 7 8 8 8 8 8 8 8 10 12 11 12 16 15 15 16 18 20 17 11 7 5 9 11 9 12 14 8 4 3 4
26 24 24 25 26 23 20 21 22 22 21 20 19 17 17 15 14 14 12 11 11 11 11 10 10 9 8 7 6 4 6 8 8 8 7 8 8 9 8 9 11 12 13 15 14 13 14 16 19 18 14 10 11 12 10 8 12 13 9 6 4 5
24 23 24 25 25 22 20 22 23 23 23 22 20 20 19 17 14 14 13 12 13 12 11 11 10 10 9 8 6 4 5 8 9 8 8 8 8 9 9 9 10 12 13 14 13 13 12 14 17 18 16 13 14 16 12 10 14 16 12 9 8 6
22 22 23 24 23 22 22 23 24 24 24 23 21 21 20 18 16 16 15 15 14 13 12 11 10 10 10 8 6 5 6 9 10 8 7 7 8 9 9 9 11 13 13 13 13 13 14 15 17 18 17 15 15 17 14 12 17 18 15 19 18 10
22 22 22 22 23 23 24 26 26 26 26 23 21 21 21 19 18 17 17 16 14 12 12 11 11 11 11 9 7 7 8 10 10 7 7 7 7 8 9 9 11 12 12 12 13 13 13 15 17 18 18 16 16 17 14 12 18 18 17 25 24 14
22 22 21 21 22 24 26 27 27 27 26 23 21 20 20 20 18 17 16 14 13 11 11 10 11 12 11 9 9 9 10 11 10 8 7 6 7 7 8 9 10 10 11 11 11 11 10 13 16 18 18 16 15 15 13 13 18 19 21 28 26 19
22 23 22 22 23 24 26 26 26 26 25 23 21 20 20 19 17 17 15 14 13 11 10 10 11 11 10 10 10 10 10 10 10 9 7 6 6 6 7 8 9 9 10 11 10 10 9 12 16 18 18 16 14 14 13 14 17 19 25 31 28 27
24 25 24 22 22 23 25 26 25 25 24 22 21 20 20 19 17 16 16 15 13 11 10 10 10 10 10 11 10 10 9 8 10 11 8 5 6 6 7 8 9 10 11 10 10 9 9 11 14 18 18 16 15 14 13 15 17 19 26 30 28 28
19 21 23 22 17 15 20 24 24 24 23 22 21 21 21 19 18 17 16 15 13 11 11 10 10 10 10 10 10 10 8 7 8 11 9 6 6 6 7 8 9 10 11 10 9 10 10 10 12 16 17 16 15 13 12 15 16 19 25 27 26 26
Wind_Direction
165 165 165 163 160 158 156 155 153 154 151 147 142 138 140 142 146 147 146 143 141 139 137 136 131 128 123 121 121 122 122 125 132 133 129 136 144 145 139 131 133 137 137 139 145 136 116 104 104 106 105 120 146 157 159 151 136 127 123 118 119 121
163 165 164 162 159 156 157 157 156 156 151 144 139 138 140 143 149 150 150 149 146 143 140 137 132 129 127 124 120 118 120 123 127 124 120 121 126 124 118 116 118 124 132 135 139 134 119 112 116 112 106 123 149 157 158 155 142 134 128 124 123 124
162 164 164 161 159 160 161 160 160 157 150 145 144 146 148 151 153 150 150 152 149 146 139 133 130 131 131 128 124 121 123 125 124 120 117 117 116 116 113 116 119 123 134 137 138 134 125 123 126 121 112 122 147 157 159 156 146 139 134 130 130 129
164 165 163 161 162 164 164 163 162 159 153 151 152 153 157 157 152 148 150 153 150 145 139 134 134 139 139 137 131 129 130 130 128 126 124 124 120 114 110 112 115 123 135 140 142 137 131 135 133 126 121 125 144 157 161 158 151 144 140 137 134 129
166 167 165 164 166 167 166 164 163 162 158 157 157 158 161 158 150 150 153 153 152 150 150 147 149 154 153 148 140 136 134 131 132 131 128 124 116 109 107 110 114 125 137 143 144 139 138 147 142 133 131 132 144 158 163 160 154 150 145 141 138 135
167 169 168 167 168 169 168 167 165 165 163 161 163 163 163 159 154 155 156 155 155 157 161 160 161 162 160 156 147 139 132 127 128 126 122 118 112 106 108 114 120 130 140 145 142 138 142 150 149 145 145 144 148 160 165 162 159 155 147 144 144 146
169 172 171 170 170 170 171 170 168 168 168 166 169 169 165 163 160 159 159 159 159 162 167 170 169 166 165 162 155 146 135 130 129 122 114 107 104 103 111 122 132 143 147 148 136 118 115 131 148 154 156 153 155 164 167 166 164 158 148 147 147 146
173 177 175 174 173 172 172 171 169 170 171 172 175 175 170 167 166 163 160 162 163 167 172 175 172 168 170 169 164 157 147 144 136 126 115 104 102 101 110 136 154 164 161 151 123 89 80 106 141 158 164 159 160 168 171 171 167 158 153 151 147 143
177 178 176 175 175 173 172 173 172 172 174 177 179 179 176 174 172 169 166 169 172 176 180 181 176 173 176 174 170 166 159 153 145 134 122 112 111 105 111 147 168 176 163 140 104 86 78 108 136 151 160 155 159 171 174 173 167 161 158 155 149 144
178 177 176 176 176 174 174 176 175 176 180 180 181 182 182 180 179 177 174 177 180 184 190 188 183 180 180 179 175 174 173 167 161 158 130 119 122 115 124 150 160 156 138 124 110 107 107 128 138 144 154 154 160 173 176 174 168 163 161 158 153 147
178 177 178 177 178 177 178 180 179 181 186 184 183 185 183 183 184 184 184 186 186 192 199 196 191 187 184 185 183 182 186 187 192 195 150 127 128 118 125 144 145 124 113 116 118 119 127 142 144 148 161 164 168 175 177 174 169 165 163 162 157 150
178 178 180 180 181 182 183 184 184 186 189 188 189 190 188 188 189 190 194 196 197 201 202 199 197 194 190 191 194 195 198 199 206 197 151 133 134 125 122 136 132 112 108 114 118 124 136 150 152 156 167 175 179 179 176 173 169 167 166 166 159 152
179 181 184 185 185 187 188 189 191 191 190 191 193 197 196 194 194 196 201 204 207 207 203 202 201 198 193 195 200 198 191 187 189 177 146 138 141 132 124 127 125 118 119 121 124 132 145 154 158 163 170 178 181 178 172 170 169 168 169 168 160 154
179 182 184 186 188 191 193 194 197 195 193 194 196 202 202 200 200 202 208 210 211 208 206 206 202 197 190 190 195 187 179 174 177 174 155 148 144 136 132 130 126 126 131 136 136 143 151 153 157 163 168 174 175 171 168 166 167 170 171 169 160 155
177 180 182 187 191 196 199 199 200 197 196 198 200 204 205 204 206 207 213 213 210 208 208 207 202 198 191 187 187 181 178 177 177 178 169 158 146 143 143 140 138 136 142 150 149 150 151 149 152 155 160 167 168 167 165 164 168 172 172 168 162 160
174 178 182 188 195 199 203 202 201 200 199 201 205 209 209 208 208 209 213 212 208 208 208 207 204 203 198 191 190 184 180 180 180 179 175 164 151 149 147 147 152 151 151 157 157 155 154 153 152 150 151 156 160 165 166 165 169 172 170 168 166 167
172 178 182 189 196 201 204 204 202 200 200 204 210 214 212 208 209 210 213 209 208 211 211 210 207 207 202 196 197 192 185 183 181 178 175 168 156 151 153 153 157 161 160 159 161 160 155 151 149 148 151 154 156 162 166 166 168 167 166 169 172 172
172 177 182 187 194 200 204 204 202 201 202 204 209 214 211 210 213 217 217 212 212 213 214 214 213 212 205 197 201 199 193 188 181 178 174 170 161 156 164 165 160 164 169 164 164 163 155 146 140 141 145 149 156 161 163 165 165 162 161 167 171 171
174 175 179 184 190 196 202 203 202 202 203 204 206 209 209 213 217 219 221 218 217 217 216 216 216 216 206 198 204 202 197 192 186 182 175 173 166 161 170 176 170 168 170 165 164 162 155 146 137 132 130 129 138 147 154 162 166 164 161 162 164 167
176 176 177 182 188 193 196 199 202 199 199 202 205 206 208 214 216 218 227 223 220 221 217 215 214 213 207 205 210 209 202 195 195 189 183 186 175 165 172 177 174 172 166 156 153 155 154 148 135 120 112 111 113 124 143 160 167 166 163 164 164 164
177 179 181 184 188 192 194 195 198 196 195 198 202 203 205 212 217 221 226 222 223 226 220 215 216 215 215 215 212 212 210 202 194 188 192 196 180 167 171 173 170 169 163 151 147 146 148 145 131 114 104 98 97 106 129 149 157 161 161 167 172 167
179 182 186 189 190 193 196 195 195 194 192 195 199 201 203 211 219 220 217 216 221 223 218 216 217 218 222 221 215 210 210 203 191 183 182 183 176 169 168 169 168 164 158 153 149 146 146 142 130 125 120 100 86 94 107 113 122 138 146 153 166 170
182 184 187 193 195 194 194 193 192 193 189 191 196 199 204 212 213 211 209 210 211 210 211 213 213 218 224 222 218 210 203 197 189 181 170 168 171 170 167 167 170 166 157 152 152 154 153 149 143 136 122 103 77 79 81 75 80 80 107 134 153 170
188 188 190 195 197 192 188 188 191 193 190 191 195 198 202 206 203 201 201 198 193 194 202 208 209 215 220 212 205 200 190 184 180 174 167 168 170 172 172 171 172 174 164 153 155 164 167 165 155 143 115 97 80 66 30 74 76 60 58 103 117 162
193 192 193 196 195 187 183 186 190 190 188 189 192 194 195 197 196 194 190 184 179 184 193 199 203 204 201 190 180 176 173 171 172 172 168 168 172 174 178 178 176 181 177 169 167 174 183 181 164 155 138 128 99 89 217 138 102 63 61 82 79 94
194 194 195 197 193 186 184 189 191 185 182 184 182 186 191 192 191 187 179 174 172 175 179 181 187 184 174 169 166 161 164 167 173 177 172 171 177 178 181 183 181 188 193 190 184 181 188 189 179 179 186 175 155 228 175 138 123 51 70 82 75 88
193 193 195 196 192 186 186 191 193 189 187 188 184 187 193 192 187 180 171 168 164 157 153 152 153 151 149 153 157 160 167 171 173 176 176 179 186 185 183 184 184 192 200 200 196 191 192 191 190 199 217 218 272 230 172 155 152 151 103 84 78 90
191 192 194 195 190 186 188 192 193 191 190 194 195 192 191 189 185 177 168 164 157 148 143 138 134 133 133 137 143 153 164 169 170 173 178 184 188 188 188 191 187 189 198 199 201 204 205 200 199 204 207 218 262 179 171 171 163 147 119 96 96 94
189 190 192 192 188 186 190 194 192 191 190 191 195 190 184 183 182 175 169 167 162 156 149 141 136 134 133 133 135 145 161 168 168 172 178 183 189 192 192 193 187 186 193 197 202 212 215 210 207 208 203 192 172 153 153 155 154 142 122 125 132 109
189 190 191 190 188 189 193 196 194 193 189 183 182 179 176 177 178 177 177 177 173 167 160 152 147 144 143 141 140 148 164 166 164 169 176 178 187 193 191 190 188 188 190 190 194 204 215 218 213 214 211 188 166 157 143 137 149 143 127 117 114 129
189 191 190 189 190 193 196 199 199 196 190 182 176 173 174 176 177 178 178 175 174 173 171 165 158 152 148 147 152 165 177 172 166 172 181 180 183 186 186 188 188 187 186 186 188 192 203 214 216 218 217 205 187 177 168 166 165 157 143 128 120 123
188 190 189 190 193 196 199 201 203 200 194 187 180 176 177 178 176 173 169 165 168 172 172 170 165 157 153 156 165 180 192 185 176 179 188 189 186 183 184 187 186 185 187 190 192 191 195 202 211 216 214 212 201 188 183 182 175 169 157 146 139 128
186 188 189 191 193 196 199 201 201 199 194 191 186 183 183 182 177 172 166 162 161 163 165 169 171 166 160 161 167 172 180 180 176 180 188 192 191 186 187 190 189 189 192 195 194 196 200 199 204 210 208 209 203 190 189 188 180 175 158 146 140 129
182 186 188 189 190 193 195 197 197 194 192 190 187 186 188 186 182 178 173 168 164 165 164 166 172 172 166 163 164 164 168 173 175 176 181 191 193 188 189 192 192 193 194 196 195 197 202 200 201 204 203 204 202 195 194 189 183 177 160 150 144 137
182 184 186 185 185 188 188 188 187 187 188 188 187 188 189 190 190 187 183 179 177 178 174 167 167 168 167 168 167 165 168 175 179 179 178 190 198 193 192 193 190 190 190 190 189 190 192 194 197 198 198 199 198 199 199 188 184 179 165 158 154 150
186 182 180 178 177 180 181 179 179 181 182 184 186 187 189 193 195 194 190 187 187 188 186 178 170 167 166 171 173 173 173 178 186 187 182 190 203 201 196 193 187 182 181 179 177 175 173 180 190 194 195 196 194 197 200 189 181 175 166 161 161 160
189 183 175 169 160 160 172 173 174 177 179 183 188 190 192 193 192 194 194 195 196 194 193 190 181 173 170 174 178 182 182 183 192 191 184 183 197 200 197 195 188 182 177 172 169 165 161 165 178 189 193 193 192 194 195 188 179 173 168 164 164 166